Chillicothe, MO

5:41 AM CDT on October 16, 2019 (GMT -0500)
Chillicothe

Weather History for KCDJ - August, 2019

Change the Weather History Date:

Tuesday, August 27, 2019

  Actual Average (WUND) Record (WUND)
Temperature  
Mean Temperature 72 °F -  
Max Temperature 80 °F - - (-1)
Min Temperature 64 °F - - (-1)
Cooling Degree Days 7    
Growing Degree Days 22 (Base 50)    
Moisture  
Dew Point 61 °F    
Average Humidity 72    
Maximum Humidity 100    
Minimum Humidity 46    
Precipitation  
Precipitation 0.00 in - - ()
Sea Level Pressure  
Sea Level Pressure 29.96 in    
Wind  
Wind Speed 4 mph (NW)    
Max Wind Speed 10 mph    
Max Gust Speed 23 mph    
Averages and records for this station are not official NWS values.
T = Trace of Precipitation, MM = Missing Value Source: NWS Daily Summary

Daily Weather History Graph

Daily Weather History Graph

Search for Another Location

Airport or City:

Astronomy

Aug. 27, 2019 Rise Set
Actual Time 6:37 AM CDT 7:53 PM CDT
Civil Twilight 6:09 AM CDT 8:21 PM CDT
Nautical Twilight 5:35 AM CDT 8:55 PM CDT
Astronomical Twilight 5:00 AM CDT 9:30 PM CDT
Moon 3:03 AM CDT (8/27) 6:14 PM CDT (8/27)
Length of Visible Light 14h 12m
Length of Day
13h 16m
Waning Crescent, 11% of the Moon is Illuminated
Aug 27
Waning Crescent
Aug 30
New
Sep 5
First Quarter
Sep 13
Full
Sep 21
Last Quarter

Hourly Weather History & Observations

Time (CDT) Temp. Heat Index Dew Point Humidity Pressure Visibility Wind Dir Wind Speed Gust Speed Precip Events Conditions
12:52 AM 66.9 °F - 66.0 °F 97% 29.86 in - NW 3.5 mph - N/A   Unknown
1:52 AM 64.9 °F - 64.0 °F 97% 29.87 in - Calm Calm - N/A   Unknown
2:52 AM 64.0 °F - 64.0 °F 100% 29.89 in - Calm Calm - N/A   Unknown
3:52 AM 66.0 °F - 66.0 °F 100% 29.90 in - WNW 3.5 mph - N/A   Unknown
4:52 AM 66.0 °F - 66.0 °F 100% 29.88 in - NW 4.6 mph - N/A   Unknown
5:52 AM 64.9 °F - 64.9 °F 100% 29.90 in - Calm Calm - N/A   Unknown
6:52 AM 64.9 °F - 63.0 °F 93% 29.93 in - Variable 3.5 mph - N/A   Unknown
7:52 AM 64.9 °F - 63.0 °F 93% 29.95 in - Calm Calm - N/A   Unknown
8:52 AM 69.1 °F - 63.0 °F 81% 29.96 in - NW 8.1 mph - N/A   Unknown
9:52 AM 72.0 °F - 62.1 °F 71% 29.97 in - WNW 8.1 mph - N/A   Unknown
10:52 AM 75.0 °F - 61.0 °F 62% 29.97 in - Variable 6.9 mph - N/A   Unknown
11:52 AM 77.0 °F - 61.0 °F 58% 29.98 in - NW 8.1 mph 17.3 mph N/A   Unknown
12:52 PM 78.1 °F - 60.1 °F 54% 29.96 in - NW 10.4 mph 17.3 mph N/A   Unknown
1:52 PM 79.0 °F - 59.0 °F 50% 29.98 in - NW 6.9 mph 19.6 mph N/A   Unknown
2:52 PM 80.1 °F 80.7 °F 59.0 °F 48% 29.97 in - NW 10.4 mph - N/A   Unknown
3:52 PM 80.1 °F 80.7 °F 59.0 °F 48% 29.98 in - NW 8.1 mph 23.0 mph N/A   Unknown
4:52 PM 78.1 °F - 55.9 °F 46% 29.99 in - Variable 6.9 mph 19.6 mph N/A   Unknown
5:52 PM 78.1 °F - 57.0 °F 48% 29.99 in - Variable 5.8 mph - N/A   Unknown
6:52 PM 75.0 °F - 57.0 °F 53% 30.00 in - Variable 6.9 mph - N/A   Unknown
7:52 PM 70.0 °F - 57.0 °F 63% 30.00 in - Variable 3.5 mph - N/A   Unknown
8:52 PM 69.1 °F - 55.0 °F 61% 30.01 in - NW 6.9 mph - N/A   Unknown
9:52 PM 68.0 °F - 55.9 °F 65% 30.03 in - NW 5.8 mph - N/A   Unknown
11:52 PM 66.0 °F - 55.9 °F 70% 30.03 in - Variable 3.5 mph - N/A   Unknown